[[{"header":{"parameterUnit":"m.s-1","parameterCategory":1,"la1":30.2991,"la2":30.254,"lo1":-89.0895,"lo2":-89.0444,"dy":0.0017,"dx":0.0017,"nx":28,"ny":28,"refTime":"2025-07-30T21:00:00:Z","depth":0,"parameterNumber":2,"parameterNumberName":"U-component_of_WINDS"},"data":[0,0,0,0,0,0,0,0,0,0,0,0,0,0,0,0,0,0,0,0,0,0,0,0,0,0,0,0,0,0,0,0,0,0,0,0,0,0,0,0,0,0,0,0,0,0,0,0,0,0,0,0,0,0,0,0,0,0,2.7939,2.794,0,2.801,2.801,2.8011,2.7962,2.796,2.7958,2.7955,2.8034,2.8038,2.8042,0,0,0,0,0,0,0,0,0,0,0,0,0,2.7769,2.7772,2.7939,2.794,2.7941,2.8009,2.801,2.8011,2.7962,2.796,2.7957,2.7954,2.8033,2.8037,2.8042,0,0,0,0,0,0,0,0,0,0,0,0,0,2.7841,2.7773,2.7939,2.7925,2.7924,2.8009,2.8011,2.8012,2.7963,2.796,2.7956,2.7953,2.8031,2.8037,2.8043,2.8149,0,0,2.8062,2.8065,0,0,0,0,0,0,0,0,2.7837,2.7848,2.7926,2.7926,2.7925,2.7973,2.7979,2.8058,2.7964,2.7948,2.7955,2.7952,2.8017,2.8024,2.8045,2.8152,2.8156,2.8063,2.8067,2.8069,2.8071,0,0,0,0,0,0,0,2.7832,2.7844,2.7967,2.7927,2.7927,2.7917,2.7923,2.7994,2.8001,2.795,2.7946,2.7955,2.8016,2.8039,2.8046,2.8157,2.8063,2.8068,2.8072,2.8074,2.8356,2.8359,0,0,0,0,0,0,2.7828,2.7841,2.7965,2.7969,2.7872,2.7922,2.793,2.7962,2.8,2.8002,2.7958,2.7952,2.803,2.8039,2.8049,2.8176,2.8069,2.8075,2.8079,2.8352,2.8356,2.836,0,0,0,0,0,0,2.7824,2.7839,2.7962,2.7904,2.7919,2.7929,2.7965,2.7965,2.7987,2.8006,2.8007,2.7979,2.8028,2.804,2.8124,2.8178,2.8078,2.8084,2.8347,2.8353,2.8358,2.843,0,0,0,0,0,0,2.782,2.7838,2.7877,2.7905,2.7922,2.8034,2.7968,2.7968,2.7997,2.7991,2.8026,2.8029,2.8026,2.8115,2.813,2.8185,2.8088,2.8343,2.835,2.8357,2.8423,2.8437,2.845,0,0,0,0,0,2.7814,2.7896,2.7879,2.7895,2.797,2.8038,2.8048,2.804,2.8002,2.8042,2.8054,2.8028,2.8169,2.8124,2.8141,2.8198,2.8339,2.8348,2.8356,2.8417,2.8435,2.8449,0,0,0,0,0,0,2.7876,2.7899,2.7881,2.7974,2.8004,2.8029,2.8079,2.8059,2.8102,2.8095,2.8086,2.8094,2.8182,2.8198,2.8147,2.8303,2.8248,2.8261,2.8289,2.8306,2.8319,2.8314,2.8094,0,0,0,0,0,2.79,2.795,2.7969,2.8049,2.8065,2.807,2.8099,2.809,2.8122,2.8135,2.8153,2.8186,2.8238,2.8273,2.8321,2.8424,2.8433,2.8472,2.8486,2.8497,2.8508,2.8565,2.8584,2.8388,2.8388,2.8388,0,0,2.7951,2.797,2.8003,2.8062,2.8084,2.8139,2.8081,2.8141,2.8182,2.8145,2.8225,2.8239,2.8276,2.837,2.8413,2.8386,2.8563,2.8507,2.8516,2.8521,2.8576,2.8594,2.8611,2.8394,2.8393,2.8392,0,0,2.8072,2.8091,2.816,2.8183,2.8217,2.8219,2.8236,2.8264,2.8272,2.8352,2.8325,2.8375,2.8464,2.8491,2.8517,2.8649,2.8628,2.8665,2.8736,2.8792,2.8807,2.8821,2.887,2.8887,2.8676,2.8676,2.8676,0,2.8133,2.8212,2.8199,2.8261,2.8289,2.8255,2.8327,2.8351,2.84,2.8421,2.8389,2.8501,2.8523,2.8624,2.8656,2.8677,2.8698,2.8662,2.8806,2.8819,2.8832,2.8879,2.8897,2.868,2.868,2.868,2.8679,0,2.8285,2.834,2.8393,2.8439,2.8472,2.8539,2.8539,2.8574,2.8563,2.857,2.8652,2.8677,2.8731,2.8754,2.8745,2.8855,2.8837,2.8806,2.8752,2.8855,2.8899,2.8917,2.8687,2.8685,2.8684,2.8683,0,0,2.8449,2.8486,2.8506,2.8526,2.8561,2.8605,2.8671,2.8721,2.8753,2.8787,2.8844,2.892,2.8891,2.8921,2.8914,2.8963,2.9068,2.8926,2.8927,2.8953,2.9193,2.9217,2.9238,2.9053,2.9056,2.9059,2.919,0,2.8573,2.8686,2.8677,2.8784,2.8837,2.8805,2.8863,2.8891,2.8899,2.8946,2.8956,2.901,2.8967,2.8985,2.9032,2.9045,2.9116,2.9035,2.9108,2.9111,2.9101,2.926,2.9286,2.9409,2.9207,2.921,2.9212,0,2.8734,2.8772,2.8885,2.8911,2.8933,2.8985,2.9031,2.9075,2.9108,2.911,2.9143,2.9127,2.9196,2.9139,2.9235,2.918,2.9209,2.922,2.9225,2.9233,2.9169,2.9275,2.9448,2.9467,2.9238,2.9236,2.9234,0,2.8845,2.8924,2.9002,2.9021,2.9053,2.9091,2.9107,2.9135,2.9167,2.9207,2.9228,2.9277,2.9304,2.9343,2.9343,2.9301,2.9441,2.9383,2.9447,2.9447,2.948,2.9478,2.9662,2.9495,2.9495,2.9494,2.9494,0,2.8986,2.9057,2.9052,2.91,2.9179,2.9168,2.9247,2.9259,2.9285,2.9336,2.9312,2.9361,2.9356,2.9407,2.9407,2.9488,2.95,2.9505,2.9505,2.9509,2.9508,2.9529,2.9522,2.9499,2.9498,2.9497,2.9496,0,2.9124,2.9123,2.9206,2.923,2.9237,2.9295,2.9316,2.9363,2.9368,2.9433,2.9448,2.9457,2.9515,2.9518,2.9585,2.9585,2.9684,2.9673,2.9673,2.9671,2.9736,2.9731,2.9941,2.9969,2.9783,2.9784,2.9786,0,2.9215,2.9268,2.9297,2.9328,2.9346,2.9398,2.9429,2.942,2.9454,2.9495,2.9538,2.9593,2.9637,2.9731,2.9745,2.9797,2.9789,2.9859,2.9797,2.9799,2.9792,2.979,2.9796,2.9872,2.9874,2.9876,2.9877,0,2.9377,2.9374,2.9419,2.9464,2.9501,2.9537,2.957,2.9598,2.9594,2.9633,2.9691,2.9725,2.9793,2.9849,2.9899,2.9918,2.9898,2.9896,2.9914,2.992,2.9918,2.9922,2.9708,2.9892,2.989,2.9889,2.9889,2.9888,2.9496,2.9542,2.957,2.9621,2.9644,2.9675,2.9721,2.9731,2.9778,2.9831,2.9824,2.9889,2.9921,2.9986,3.0008,3.0061,3.0037,3.0063,3.0069,3.0076,3.0084,2.9907,3.007,3.0069,3.0069,3.0069,3.0068,0,2.9659,2.9675,2.9721,2.9768,2.9808,2.9782,2.9818,2.9854,2.9911,2.9941,2.9985,3.0052,3.0106,3.0124,3.0177,3.0216,3.0208,3.023,3.0228,3.0234,3.0101,3.0081,3.0235,3.0235,3.0235,3.0235,3.0235,3.0235,2.9749,2.9826,2.9826,2.9916,2.9931,2.9993,3.0016,3.0045,3.007,3.0145,3.0189,3.0199,3.0226,3.028,3.0329,3.0333,3.0355,3.0382,3.0382,3.0259,3.0243,3.0227,3.0208,3.0386,3.0386,3.051,3.0511,3.0512]},{"header":{"parameterUnit":"m.s-1","parameterCategory":1,"la1":30.2991,"la2":30.254,"lo1":-89.0895,"lo2":-89.0444,"dy":0.0017,"dx":0.0017,"nx":28,"ny":28,"refTime":"2025-07-30T21:00:00:Z","depth":0,"parameterNumber":3,"parameterNumberName":"V-component_of_WINDS"},"data":[0,0,0,0,0,0,0,0,0,0,0,0,0,0,0,0,0,0,0,0,0,0,0,0,0,0,0,0,0,0,0,0,0,0,0,0,0,0,0,0,0,0,0,0,0,0,0,0,0,0,0,0,0,0,0,0,0,0,1.0426,1.0426,0,1.0385,1.0384,1.0384,1.0339,1.0338,1.0337,1.0337,1.0293,1.0292,1.0292,0,0,0,0,0,0,0,0,0,0,0,0,0,1.0466,1.0466,1.0426,1.0426,1.0425,1.0385,1.0384,1.0383,1.0339,1.0338,1.0337,1.0336,1.0293,1.0292,1.0292,0,0,0,0,0,0,0,0,0,0,0,0,0,1.0439,1.0465,1.0426,1.0398,1.0395,1.0385,1.0384,1.0383,1.0339,1.0338,1.0337,1.0336,1.0293,1.0292,1.0291,1.0305,0,0,1.0289,1.0288,0,0,0,0,0,0,0,0,1.0441,1.0438,1.0403,1.04,1.0397,1.0366,1.0382,1.0357,1.0339,1.036,1.0337,1.0336,1.0318,1.0315,1.0309,1.0303,1.0301,1.0289,1.0288,1.0288,1.0288,0,0,0,0,0,0,0,1.0443,1.0439,1.041,1.0402,1.0399,1.0387,1.0382,1.0377,1.0345,1.0358,1.0355,1.0351,1.0316,1.031,1.0308,1.0301,1.0289,1.0288,1.0287,1.0287,1.0303,1.0304,0,0,0,0,0,0,1.0449,1.0441,1.0411,1.0409,1.0417,1.0387,1.0382,1.0377,1.0345,1.0339,1.0352,1.0349,1.0312,1.0309,1.0306,1.0319,1.0288,1.0287,1.0286,1.0302,1.0303,1.0304,0,0,0,0,0,0,1.045,1.0447,1.0413,1.0424,1.0419,1.0387,1.0382,1.0376,1.037,1.034,1.0334,1.0351,1.0311,1.0307,1.0306,1.0317,1.0287,1.0286,1.0301,1.0302,1.0303,1.0346,0,0,0,0,0,0,1.0451,1.0447,1.0453,1.0424,1.0418,1.0414,1.0383,1.0376,1.0369,1.0365,1.0338,1.0333,1.031,1.0307,1.0305,1.0315,1.0285,1.0299,1.0301,1.0303,1.0344,1.0349,1.0353,0,0,0,0,0,1.0453,1.0466,1.0453,1.045,1.0424,1.0415,1.0411,1.0385,1.037,1.0375,1.0355,1.0333,1.0316,1.0307,1.0304,1.0315,1.0299,1.0301,1.0303,1.0341,1.0348,1.0353,0,0,0,0,0,0,1.0496,1.0462,1.0447,1.0452,1.0436,1.0407,1.0412,1.0393,1.0381,1.0378,1.0346,1.034,1.0342,1.0328,1.0319,1.0326,1.0304,1.0306,1.0335,1.0341,1.0345,1.0348,1.0284,0,0,0,0,0,1.0507,1.0502,1.0472,1.0479,1.0472,1.0444,1.0438,1.042,1.0402,1.0396,1.0376,1.0359,1.035,1.0345,1.0334,1.0342,1.0334,1.0347,1.0352,1.0356,1.0358,1.036,1.0365,1.0311,1.0311,1.0311,0,0,1.0528,1.0508,1.0507,1.0487,1.0473,1.0469,1.0438,1.0435,1.0431,1.0395,1.0392,1.0377,1.0356,1.0359,1.0359,1.0348,1.0371,1.0359,1.0362,1.0362,1.0362,1.0367,1.0372,1.0312,1.0312,1.0312,0,0,1.0563,1.0549,1.0552,1.0539,1.0518,1.0499,1.05,1.0473,1.0462,1.0458,1.0431,1.0426,1.0411,1.0397,1.0388,1.0418,1.0397,1.0416,1.0441,1.0443,1.0447,1.0451,1.0461,1.0465,1.0418,1.0418,1.0418,0,1.0592,1.0584,1.0557,1.0555,1.0546,1.0514,1.0517,1.0505,1.0482,1.0477,1.0464,1.0444,1.0428,1.0427,1.0434,1.0428,1.0428,1.0418,1.0449,1.0452,1.0455,1.0464,1.0468,1.042,1.042,1.0419,1.0419,0,1.062,1.0615,1.062,1.0599,1.0591,1.0592,1.0564,1.056,1.0542,1.0524,1.0521,1.05,1.0485,1.0483,1.0466,1.0479,1.0473,1.0455,1.0433,1.0463,1.0471,1.0475,1.0423,1.0422,1.0422,1.0421,0,0,1.0681,1.0645,1.0647,1.0637,1.0611,1.0606,1.0606,1.0591,1.0587,1.0572,1.057,1.0558,1.0542,1.0532,1.0512,1.0514,1.0538,1.0496,1.0495,1.0504,1.0551,1.0564,1.0568,1.0525,1.0525,1.0526,1.0552,0,1.0711,1.0708,1.0683,1.0687,1.0681,1.065,1.0649,1.0633,1.0617,1.0609,1.059,1.0582,1.0561,1.0555,1.0556,1.0535,1.0547,1.0533,1.0521,1.0521,1.0527,1.0572,1.0586,1.0612,1.0555,1.0556,1.0556,0,1.0746,1.0734,1.0737,1.0711,1.0708,1.0707,1.0692,1.0685,1.0666,1.0654,1.0643,1.0621,1.0617,1.0597,1.0591,1.0582,1.0575,1.0565,1.0565,1.0562,1.054,1.057,1.062,1.0624,1.0561,1.0561,1.056,0,1.079,1.0774,1.0773,1.0766,1.0736,1.0736,1.0723,1.0703,1.0696,1.0682,1.0677,1.0663,1.0655,1.0644,1.0619,1.0607,1.0616,1.0593,1.0604,1.0605,1.0607,1.0607,1.0656,1.0605,1.0604,1.0604,1.0604,0,1.0826,1.0829,1.0792,1.0792,1.0794,1.0766,1.0768,1.0753,1.0735,1.0731,1.0703,1.0699,1.0666,1.0659,1.0639,1.0636,1.0633,1.0622,1.0617,1.0624,1.0626,1.0619,1.0617,1.0605,1.0605,1.0605,1.0605,0,1.0875,1.0851,1.0848,1.082,1.0813,1.0815,1.0791,1.0789,1.0771,1.0765,1.0762,1.0733,1.0723,1.0696,1.0679,1.0665,1.0668,1.0659,1.0675,1.0671,1.0684,1.0683,1.0729,1.0733,1.068,1.0681,1.0681,0,1.0899,1.09,1.0873,1.0868,1.0857,1.0849,1.0842,1.0814,1.0807,1.0785,1.0786,1.0773,1.0761,1.0746,1.0723,1.0709,1.0698,1.0716,1.0696,1.0703,1.0697,1.0697,1.0697,1.072,1.072,1.0721,1.0722,0,1.0944,1.0932,1.0923,1.0909,1.0901,1.0889,1.0875,1.0872,1.084,1.0834,1.0823,1.0814,1.0796,1.0784,1.0767,1.0753,1.0732,1.0728,1.073,1.0737,1.0746,1.0741,1.0686,1.0727,1.0726,1.0726,1.0726,1.0725,1.0981,1.098,1.0961,1.0951,1.0938,1.0925,1.0922,1.0903,1.0894,1.0877,1.0861,1.0852,1.0832,1.0807,1.0794,1.0786,1.0775,1.0778,1.0778,1.0779,1.0782,1.0748,1.0783,1.0783,1.0783,1.0782,1.0782,0,1.1024,1.101,1.1001,1.0983,1.0975,1.0956,1.094,1.0934,1.0927,1.091,1.0899,1.0887,1.0874,1.085,1.0836,1.0834,1.0823,1.0831,1.083,1.0827,1.0793,1.0793,1.0839,1.0839,1.0839,1.0839,1.0839,1.0839,1.1045,1.1044,1.1029,1.1021,1.1006,1.0997,1.0989,1.0977,1.0964,1.0951,1.0941,1.0926,1.0906,1.089,1.0877,1.087,1.0866,1.0876,1.0866,1.0835,1.0829,1.0824,1.0824,1.0875,1.0876,1.09,1.09,1.0901]}]]